FW9477 Weather Reports


Display with metric or nautical units.
time (UTC)temp
F
wind
direction
speed
MPH
gust
MPH
rain 1hr
in
rain 24hr
in
rain mn
in
humidity
%
barometer
mb
20211129115721 42 222 0.0 0.0 0.00 0.00 0.00 99 1024.9
20211129114218 42 155 1.0 1.0 0.00 0.00 0.00 99 1024.4
20211129112715 43 203 0.0 0.0 0.00 0.00 0.00 99 1024.5
20211129111208 43 219 0.0 0.0 0.00 0.00 0.00 99 1024.3
20211129105706 43 217 0.0 0.0 0.00 0.00 0.00 99 1024.6
20211129104203 43 247 0.0 0.0 0.00 0.00 0.00 99 1024.6
20211129102701 43 231 0.0 1.0 0.00 0.00 0.00 99 1024.7
20211129101159 43 238 0.0 0.0 0.00 0.00 0.00 99 1024.7
20211129095655 43 209 0.0 0.0 0.00 0.00 0.00 99 1024.6
20211129094156 43 223 0.0 0.0 0.00 0.00 0.00 99 1024.7
20211129092655 43 209 0.0 0.0 0.00 0.00 0.00 99 1024.3
20211129091153 42 203 0.0 1.0 0.00 0.00 0.00 99 1024.3
20211129085650 42 165 1.0 1.0 0.00 0.00 0.00 99 1024.4
20211129084146 43 119 1.0 1.0 0.00 0.00 0.00 99 1024.8
20211129082646 42 186 1.0 1.0 0.00 0.00 0.00 99 1024.4
20211129081143 42 183 1.0 1.0 0.00 0.00 0.00 99 1024.8
20211129075640 42 203 0.0 1.0 0.00 0.01 0.01 99 1024.7
20211129074138 42 179 1.0 1.0 0.00 0.01 0.01 99 1024.7
20211129072634 42 207 0.0 0.0 0.00 0.01 0.01 99 1024.8
20211129071132 42 189 0.0 0.0 0.00 0.01 0.01 99 1024.8
20211129065629 42 194 0.0 0.0 0.00 0.01 0.01 99 1024.7
20211129064125 43 211 0.0 0.0 0.00 0.01 0.01 99 1024.7
20211129062623 43 216 0.0 0.0 0.00 0.01 0.01 99 1024.4
20211129061122 43 249 0.0 0.0 0.00 0.01 0.01 99 1024.1
20211129055622 43 249 0.0 0.0 0.00 0.01 0.01 99 1024.2
20211129054121 43 249 0.0 0.0 0.00 0.01 0.01 99 1024.5
20211129052621 43 241 0.0 0.0 0.00 0.01 0.01 99 1024.2
20211129051119 44 243 0.0 0.0 0.00 0.01 0.01 99 1024.4
20211129045618 44 214 0.0 0.0 0.00 0.01 0.01 99 1024.4
20211129044117 44 179 0.0 0.0 0.00 0.01 0.01 99 1023.9
20211129042617 44 98 2.0 3.0 0.00 0.01 0.01 99 1024.0
20211129041116 45 196 0.0 0.0 0.00 0.01 0.01 99 1023.8
20211129035615 44 198 0.0 0.0 0.00 0.01 0.01 99 1024.0
20211129034114 44 206 0.0 0.0 0.00 0.01 0.01 99 1024.2
20211129032614 44 225 0.0 0.0 0.00 0.01 0.01 99 1024.0
20211129031114 44 244 0.0 0.0 0.00 0.01 0.01 99 1023.7
20211129025613 44 235 0.0 0.0 0.00 0.01 0.01 99 1023.8
20211129024112 45 229 0.0 0.0 0.00 0.01 0.01 99 1023.9
20211129022612 46 183 0.0 0.0 0.00 0.01 0.01 99 1023.4
20211129021111 46 18 1.0 1.0 0.00 0.01 0.01 99 1023.6
20211129015611 46 235 0.0 0.0 0.00 0.01 0.01 99 1023.4
20211129014110 46 233 0.0 0.0 0.00 0.01 0.01 99 1023.5
20211129012609 46 36 0.0 0.0 0.00 0.01 0.01 99 1023.5
20211129011105 46 193 0.0 1.0 0.00 0.01 0.01 99 1022.9
20211129005604 46 198 0.0 0.0 0.00 0.01 0.01 99 1023.0
20211129004104 47 212 0.0 1.0 0.00 0.01 0.01 99 1023.0
20211129002603 47 239 0.0 0.0 0.00 0.01 0.01 98 1022.7
20211129001104 48 98 1.0 1.0 0.00 0.01 0.01 97 1022.7
20211128235603 48 159 0.0 0.0 0.00 0.01 0.01 96 1022.6
20211128234103 48 160 0.0 0.0 0.00 0.01 0.01 97 1022.5
20211128232603 49 190 0.0 0.0 0.00 0.01 0.01 96 1022.4
20211128231102 50 204 0.0 0.0 0.00 0.01 0.01 95 1022.5
20211128225603 50 204 0.0 0.0 0.00 0.01 0.01 94 1022.4
20211128224102 51 203 0.0 0.0 0.00 0.01 0.01 91 1022.5
20211128222601 51 244 0.0 0.0 0.00 0.01 0.01 89 1022.7
20211128221101 51 169 1.0 1.0 0.00 0.01 0.01 89 1022.6
20211128215601 52 191 0.0 1.0 0.00 0.01 0.01 87 1022.3
20211128214100 52 219 0.0 0.0 0.00 0.01 0.01 88 1022.5
20211128212601 52 198 0.0 0.0 0.00 0.01 0.01 86 1022.5
20211128211059 53 176 1.0 1.0 0.00 0.01 0.01 86 1022.8
20211128205559 53 203 1.0 1.0 0.00 0.01 0.01 88 1023.3
20211128204058 52 212 1.0 1.0 0.00 0.01 0.01 89 1023.5
20211128202557 50 201 0.0 1.0 0.00 0.01 0.01 93 1023.5
20211128201058 49 168 2.0 2.0 0.00 0.01 0.01 94 1023.9
20211128195557 47 227 0.0 0.0 0.00 0.01 0.01 97 1023.9
20211128194057 46 193 0.0 1.0 0.00 0.01 0.01 99 1024.2
20211128192555 45 206 0.0 0.0 0.00 0.01 0.01 99 1024.3
20211128191054 44 291 3.0 3.0 0.00 0.01 0.01 99 1024.6
20211128185552 44 281 3.0 3.0 0.00 0.01 0.01 99 1024.9
20211128184052 45 288 3.0 3.0 0.00 0.01 0.01 99 1024.7
20211128182551 44 232 0.0 0.0 0.00 0.01 0.01 99 1025.1
20211128181050 42 200 0.0 0.0 0.00 0.01 0.01 99 1025.2
20211128175550 42 178 2.0 2.0 0.00 0.01 0.01 99 1025.4
20211128174049 42 193 1.0 1.0 0.00 0.01 0.01 99 1025.7
20211128172547 41 171 1.0 1.0 0.00 0.01 0.01 99 1025.4
20211128171046 41 200 0.0 1.0 0.00 0.01 0.01 99 1025.4
20211128165544 40 192 0.0 1.0 0.00 0.01 0.01 99 1025.4
20211128164043 40 209 0.0 0.0 0.00 0.01 0.01 99 1025.7
20211128162541 40 209 0.0 0.0 0.00 0.01 0.01 99 1025.6
20211128161040 40 244 0.0 0.0 0.00 0.01 0.01 99 1025.4
20211128155539 40 189 0.0 1.0 0.00 0.01 0.01 99 1025.0
20211128154038 40 179 1.0 1.0 0.00 0.01 0.01 99 1025.4
20211128152539 40 161 1.0 1.0 0.00 0.01 0.01 99 1025.3
20211128151038 40 202 0.0 0.0 0.00 0.01 0.01 99 1025.2
20211128145537 40 182 1.0 1.0 0.00 0.01 0.01 99 1024.9
20211128144035 40 173 1.0 1.0 0.00 0.01 0.01 99 1025.2
20211128142535 40 195 0.0 0.0 0.00 0.01 0.01 99 1024.8
20211128141035 40 144 2.0 2.0 0.00 0.01 0.01 99 1025.0
20211128135535 40 181 1.0 1.0 0.00 0.01 0.01 99 1025.1
20211128134034 40 193 0.0 0.0 0.00 0.01 0.01 99 1024.8
20211128132534 41 158 1.0 1.0 0.00 0.01 0.01 99 1025.0
20211128131034 41 155 1.0 2.0 0.00 0.01 0.01 99 1024.6
20211128125532 41 237 0.0 0.0 0.00 0.01 0.01 99 1024.6
20211128124031 41 160 1.0 2.0 0.00 0.01 0.01 99 1024.5
20211128122530 41 213 0.0 0.0 0.00 0.01 0.01 99 1024.5
20211128121031 41 180 1.0 1.0 0.00 0.01 0.01 99 1024.5